Other Public Products
Issued by NWS Grand Forks, ND

Home | Current Version | Previous Version | Graphics & Text | Print | Product List | Glossary On
Versions: 1 2 3 4 5 6 7 8 9 10 11 12 13 14 15 16 17 18 19 20 21 22 23 24 25 26 27 28 29 30 31 32 33 34 35 36 37 38 39 40 41 42 43 44 45 46 47 48 49 50
329
FPUS83 KFGF 010331
OPUFGF
PRAIRIE TO PINES WEATHER ROUNDUP
NATIONAL WEATHER SERVICE EASTERN NORTH DAKOTA/GRAND FORKS ND
1000 PM CDT SAT APR 30 2016

 **SATELLITE DATA USED TO AUGMENT SKY COVER AT AUTOMATED STATIONS**
 *****  WEATHER ACROSS EASTERN NORTH DAKOTA  *****

CITY           SKY/WX    TMP DP  RH WIND       PRES   REMARKS
GRAND FORKS    PTCLDY    51  29  42 NE12      30.25R
GRAND FORKS AF CLEAR     49  27  43 E10       30.25R
GRAND CITY NWS NOT AVBL
BUXTON           N/A     49  28  43 N10         N/A
DEVILS LAKE    CLEAR     48  30  49 NE8       30.26R
FARGO          CLOUDY    53  28  38 NE14      30.19R
WAHPETON ARPT  CLEAR     50  30  46 E5        30.17R
$$

 *****  WEATHER ACROSS CENTRAL AND WESTERN NORTH DAKOTA  *****

CITY           SKY/WX    TMP DP  RH WIND       PRES   REMARKS
JAMESTOWN      CLEAR     48  27  44 NE13      30.21R
BISMARCK       CLEAR     49  30  48 NE8       30.25R
MINOT          CLEAR     50  26  39 NE6       30.27R
MINOT AFB      CLEAR     52  28  40 E7        30.27R
GARRISON         N/A     45  29  53 N6        30.26R
WILLISTON      CLEAR     49  30  48 N6        30.29R
DICKINSON      CLEAR     43  27  53 NE7       30.25R
HETTINGER      PTCLDY    41  27  57 NE6       30.25R
$$

 *****  OTHER OBSERVATIONS NORTHEAST NORTH DAKOTA  *****

CITY           SKY/WX    TMP DP  RH WIND       PRES   REMARKS
WALHALLA       FAIR      46  32  57 N6        30.29R
LANGDON        FAIR      45  30  57 NE8       30.29R
CAVALIER       FAIR      48  30  49 SE3       30.28R
GRAFTON        FAIR      45  28  53 NE7       30.28S
CANDO          FAIR      45  27  49 N9        30.30S
FORT TOTTEN      N/A     51  31  46 E3        29.95S
ROLLA          FAIR      41  28  60 N10       30.31R
RUGBY          FAIR      46  28  49 NE12      30.28R
 ***** THE ABOVE OBSERVATIONS ARE NON NWS ARE NOT QUALITY
        CONTROLLED AND MAY MIS-REPORT RAIN FOR SNOW...
$$

 *****  OTHER OBSERVATIONS SOUTHEAST NORTH DAKOTA *****

CITY           SKY/WX    TMP DP  RH WIND       PRES   REMARKS
COOPERSTOWN    NOT AVBL
VALLEY CITY    FAIR      46  28  49 NE12      30.23R
OAKES            N/A    N/A N/A N/A MISG        N/A
GWINNER        FAIR      48  32  53 N13       30.18R
SHEYENNE NWR     N/A     52  27  38 NE10      29.95S
BUFFALO          N/A     49  22  35 NE8         N/A
WYNDMERE         N/A     48  30  49 NE5         N/A
 ***** THE ABOVE OBSERVATIONS ARE NON NWS ARE NOT QUALITY
       CONTROLLED AND MAY MIS-REPORT RAIN FOR SNOW...
$$

  *****  WEATHER ACROSS NORTHERN MINNESOTA  *****

CITY           SKY/WX    TMP DP  RH WIND       PRES   REMARKS
FLAG ISLAND    CLEAR     50  25  37 E5        30.27S
WARROAD        CLEAR     45  32  61 NE5       30.28S
ROSEAU         CLEAR     45  32  61 CALM      30.28R
HALLOCK        CLEAR     48  27  43 E3        30.27S
THF RVR FALLS  CLEAR     46  27  46 N9        30.26S
HALSTAD          N/A     47  23  38 NE9         N/A
FOSSTON        CLEAR     45  28  53 NE8       30.23R
BAUDETTE       CLEAR     47  25  42 NE7       30.26R
WASKISH        CLEAR     46  30  53 NE5       30.24S
CROOKSTON      CLEAR     48  28  46 NE8       30.25S
$$
  *****  WEATHER ACROSS CENTRAL AND WEST MINNESOTA  *****

CITY           SKY/WX    TMP DP  RH WIND       PRES   REMARKS
BEMIDJI        CLEAR     44  28  52 NE3       30.21S
PARK RAPIDS    CLEAR     51  30  44 E7        30.19R
WADENA         CLOUDY    45  30  57 E7        30.19R
DETROIT LAKES  CLEAR     50  30  46 NE7       30.19S
MOORHEAD       CLOUDY    52  28  40 NE14      30.20R
FERGUS FALLS   CLOUDY    48  32  53 E6        30.16R
ELBOW LAKE     FAIR      48  31  52 NE7       30.17R
MORRIS MN      CLOUDY    48  30  49 E15G24    30.14S
STAPLES        CLOUDY    45  27  49 E6        30.19R
WHEATON        CLOUDY    46  34  61 E6        30.18R
$$
  *****  WEATHER ELSEWHERE ACROSS MINNESOTA  *****

CITY           SKY/WX    TMP DP  RH WIND       PRES   REMARKS
DULUTH         CLOUDY    38  26  62 NE9       30.22F
INTRNTL FALLS  CLEAR     45  28  51 NE5       30.25S
ELY            CLEAR     34  27  75 CALM      30.25S
CLOQUET        CLOUDY    39  27  60 NE8       30.22S
BRAINERD       PTCLDY    43  28  55 NE7       30.19S
HIBBING        CLEAR     39  27  62 E6        30.23S
ALEXANDRIA     CLOUDY    47  29  49 E15       30.17R
SAINT CLOUD    CLOUDY    46  28  49 NE13G23   30.14R
MINNEAPOLIS    CLOUDY    50  29  44 NE14G24   30.10R
$$

  *****  WEATHER ACROSS SOUTH DAKOTA  *****

CITY           SKY/WX    TMP DP  RH WIND       PRES   REMARKS
SIOUX FALLS    LGT RAIN  44  40  85 E14       30.05R
BROOKINGS      CLOUDY    45  40  82 NE5       30.07R
WATERTOWN      CLOUDY    48  34  58 NE12      30.11R
HURON          CLOUDY    50  38  63 NE12      30.10R
SISSETON         N/A     49  33  54 SE9       30.14R
ABERDEEN       MOCLDY    50  31  48 NE9       30.14R
MITCHELL       LGT RAIN  45  42  89 NE10      30.10R
PIERRE         MOCLDY    45  37  73 NE9       30.13R
MOBRIDGE       PTCLDY    50  29  44 NE12      30.16R
RAPID CITY     MOCLDY    40  31  70 N10       30.19R
$$

  *****  SOME WEATHER IN NEARBY STATES *****

CITY           SKY/WX    TMP DP  RH WIND       PRES   REMARKS
GLASGOW MT     CLEAR     49  32  52 E10       30.29R
GREAT FALLS MT MOCLDY    45  34  65 E8        30.30R
CHEYENNE WY    LGT SNOW  32  29  88 N18G25    30.14R FOG     WCI  20
SCOTTSBLUFF NE CLOUDY    38  38 100 N13       30.15R
OMAHA NE       LGT RAIN  49  47  93 E15       29.86R FOG
DES MOINES IA  DRIZZLE   48  44  86 E9        29.89R FOG
DAVENPORT IA   CLOUDY    45  43  93 E15       29.91R
CHICAGO IL     LGT RAIN  45  44  97 NE14      29.94R FOG
EAU CLAIRE WI  CLOUDY    50  34  54 W3        30.07R
LA CROSSE WI   LGT RAIN  44  40  85 CALM      30.05R
$$

  *****  SOME NATIONAL WEATHER *****

CITY           SKY/WX    TMP DP  RH WIND       PRES   REMARKS
LA GUARDIA NY  CLOUDY    51  37  58 S8        30.24S
RALEIGH NC     CLOUDY    60  56  86 E6        30.16F
ATLANTA GA     CLOUDY    69  64  84 SE5       29.98S
NEW ORLEANS LA PTCLDY    70  66  87 SE7       29.87R
OKLAHOMA CITY  CLEAR     60  45  57 N12       29.91R
ALBUQUERQUE NM CLOUDY    51  44  77 N13       29.89S
SALT LAKE CITY CLOUDY    54  29  38 N10G18    29.98R
LOS ANGELES CA PTCLDY    60  47  61 W10       29.80S
BOISE ID       MOCLDY    57  37  47 NW15      30.04R
SEATTLE WA     PTCLDY    62  40  44 N8        30.30S
$$

*** WEATHER ACROSS MANITOBA...SASKATCHEWAN AND ONTARIO ***
                ***ONTARIO***

CITY           SKY/WX    TMP DP  RH WIND       PRES   REMARKS
GERALDTON      MOCLDY    41  28  60 NE9       30.33S
THUNDER BAY    CLEAR     41  28  60 NE5       30.29R
SIOUX LOOKOUT  CLEAR     41  28  60 E2        30.30R
TORONTO        CLOUDY    52  28  40 E6        30.09F
BIG TROUT LK   MOCLDY    37  28  70 E6        30.35S
PICKLE LAKE    NOT AVBL
DRYDEN         CLEAR     46  28  49 NE5       30.29R
KENORA         CLEAR     48  25  40 NE5       30.29S
$$
                *** MANITOBA***

CITY           SKY/WX    TMP DP  RH WIND       PRES   REMARKS
BRANDON        PTCLDY    43  25  49 NE5       30.33R
DAUPHIN        CLEAR     50  28  43 N3        30.35R
ISLAND LAKE    PTCLDY    46  28  49 E2        30.30S
PILOT MOUND      N/A     45  25  45 N8          N/A
THE PAS        MOCLDY    50  34  53 SE8       30.29S
THOMPSON       NOT AVBL
WINNIPEG       PTCLDY    48  30  49 NE10      30.31R
LYNN LAKE      CLEAR     57  23  26 SW5       30.20S
CHURCHILL      PTCLDY    27  25  93 SE16      30.33F WCI  14
$$
                ***SASKATCHEWAN***

CITY           SKY/WX    TMP DP  RH WIND       PRES   REMARKS
ESTEVAN        PTCLDY    45  27  49 E9        30.31R
KINDERSLEY     PTCLDY    54  32  43 NW6       30.28R
LLOYDMINSTER   PTCLDY    52  34  50 SW7       30.24S
PRINCE ALBERT  PTCLDY    55  27  33 S7        30.25F
REGINA         PTCLDY    55  23  28 E7        30.32R
YORKTON        CLEAR     50  28  43 SE7       30.33R
N. BATTLEFORD  CLEAR     55  32  41 W5        30.27S  C1F1C2F2C3F3C4F4C5F5C6F6C7F7C8F8C9F9CaFaCbFbCcFcCdFdCe!



USA.gov is the U.S. government's official web portal to all federal, state and local government web resources and services.